Hourly Weather Bolshie Sontaki

Today, 23 June, Wednesday

Time Temperature Precipitation Wind Pressure Humidity
00:00 +23°C° 0 mm 2 mps 749 mmHg 84%
01:00 +21°C° 0 mm 3 mps 749 mmHg 86%
02:00 +21°C° 0 mm 3 mps 749 mmHg 86%
03:00 +21°C° 0 mm 2 mps 749 mmHg 86%
04:00 +20°C° 0 mm 2 mps 749 mmHg 87%
05:00 +20°C° 0 mm 2 mps 749 mmHg 87%
06:00 +22°C° 0 mm 3 mps 749 mmHg 82%
07:00 +25°C° 0 mm 3 mps 750 mmHg 77%
08:00 +26°C° 0 mm 3 mps 750 mmHg 72%
09:00 +28°C° 0 mm 3 mps 751 mmHg 68%
10:00 +29°C° 0 mm 3 mps 751 mmHg 63%
11:00 +30°C° 0 mm 3 mps 751 mmHg 59%
12:00 +31°C° 0 mm 3 mps 751 mmHg 58%
13:00 +31°C° 0 mm 3 mps 751 mmHg 56%
14:00 +32°C° 0 mm 2 mps 751 mmHg 55%
15:00 +32°C° 0 mm 2 mps 751 mmHg 56%
16:00 +32°C° 0 mm 2 mps 751 mmHg 57%
17:00 +32°C° 0 mm 1 mps 751 mmHg 58%
18:00 +31°C° 0.1 mm 1 mps 751 mmHg 65%
19:00 +29°C° 0.1 mm 1 mps 751 mmHg 72%
20:00 +28°C° 0.1 mm 1 mps 751 mmHg 78%
21:00 +26°C° 0.5 mm 1 mps 751 mmHg 82%
22:00 +25°C° 0.5 mm 1 mps 751 mmHg 85%
23:00 +24°C° 0.5 mm 1 mps 751 mmHg 88%

Tomorrow, 24 June, Thursday

Time Temperature Precipitation Wind Pressure Humidity
00:00 +24°C° 1 mm 1 mps 751 mmHg 90%
01:00 +23°C° 1 mm 1 mps 751 mmHg 91%
02:00 +23°C° 1 mm 1 mps 751 mmHg 93%
03:00 +23°C° 0.7 mm 1 mps 751 mmHg 93%
04:00 +23°C° 0.7 mm 1 mps 751 mmHg 93%
05:00 +22°C° 0.7 mm 1 mps 751 mmHg 93%
06:00 +24°C° 0 mm 1 mps 751 mmHg 90%
07:00 +25°C° 0 mm 1 mps 751 mmHg 86%
08:00 +26°C° 0 mm 1 mps 751 mmHg 83%
09:00 +28°C° 0 mm 2 mps 751 mmHg 77%
10:00 +29°C° 0 mm 2 mps 751 mmHg 71%
11:00 +31°C° 0 mm 3 mps 751 mmHg 65%
12:00 +31°C° 0.5 mm 3 mps 751 mmHg 63%
13:00 +33°C° 0.5 mm 3 mps 751 mmHg 60%
14:00 +33°C° 0.5 mm 3 mps 751 mmHg 58%
15:00 +33°C° 0.1 mm 3 mps 750 mmHg 59%
16:00 +33°C° 0.1 mm 3 mps 749 mmHg 61%
17:00 +31°C° 0.1 mm 3 mps 749 mmHg 63%
18:00 +29°C° 0.3 mm 3 mps 749 mmHg 69%
19:00 +27°C° 0.3 mm 3 mps 749 mmHg 75%
20:00 +25°C° 0.3 mm 2 mps 749 mmHg 81%
21:00 +24°C° 0.8 mm 2 mps 749 mmHg 84%
22:00 +23°C° 0.8 mm 2 mps 749 mmHg 86%
23:00 +21°C° 0.8 mm 3 mps 749 mmHg 89%

Day after tomorrow, 25 June, Friday

Time Temperature Precipitation Wind Pressure Humidity
00:00 +21°C° 1 mm 2 mps 749 mmHg 89%
01:00 +21°C° 1 mm 2 mps 748 mmHg 90%
02:00 +21°C° 1 mm 1 mps 748 mmHg 90%
03:00 +21°C° 0 mm 1 mps 748 mmHg 91%
04:00 +20°C° 0 mm 2 mps 748 mmHg 92%
05:00 +20°C° 0 mm 2 mps 748 mmHg 94%
06:00 +23°C° 0 mm 2 mps 748 mmHg 90%
07:00 +24°C° 0 mm 2 mps 748 mmHg 87%
08:00 +25°C° 0 mm 3 mps 748 mmHg 84%
09:00 +27°C° 0.1 mm 2 mps 748 mmHg 79%
10:00 +28°C° 0.1 mm 2 mps 748 mmHg 74%
11:00 +29°C° 0.1 mm 2 mps 748 mmHg 70%
12:00 +29°C° 0.9 mm 2 mps 748 mmHg 70%
13:00 +30°C° 0.9 mm 3 mps 748 mmHg 69%
14:00 +30°C° 0.9 mm 3 mps 748 mmHg 69%
15:00 +28°C° 1.7 mm 3 mps 748 mmHg 75%
16:00 +27°C° 1.7 mm 2 mps 747 mmHg 80%
17:00 +25°C° 1.7 mm 2 mps 747 mmHg 86%
18:00 +25°C° 0.3 mm 2 mps 747 mmHg 87%
19:00 +25°C° 0.3 mm 2 mps 746 mmHg 88%
20:00 +24°C° 0.3 mm 2 mps 746 mmHg 89%
21:00 +22°C° 0.8 mm 3 mps 746 mmHg 90%
22:00 +21°C° 0.8 mm 4 mps 747 mmHg 91%
23:00 +19°C° 0.8 mm 5 mps 747 mmHg 92%

26 June, Saturday

Time Temperature Precipitation Wind Pressure Humidity
00:00 +19°C° 0.2 mm 4 mps 747 mmHg 94%
01:00 +19°C° 0.2 mm 3 mps 747 mmHg 96%
02:00 +19°C° 0.2 mm 2 mps 747 mmHg 98%
03:00 +19°C° 0.4 mm 3 mps 747 mmHg 97%
04:00 +19°C° 0.4 mm 3 mps 747 mmHg 97%
05:00 +20°C° 0.4 mm 3 mps 747 mmHg 97%
06:00 +20°C° 0.1 mm 3 mps 747 mmHg 95%
07:00 +20°C° 0.1 mm 4 mps 747 mmHg 93%
08:00 +21°C° 0.1 mm 4 mps 748 mmHg 91%
09:00 +22°C° 0 mm 4 mps 748 mmHg 85%
10:00 +22°C° 0 mm 3 mps 748 mmHg 80%
11:00 +24°C° 0 mm 3 mps 748 mmHg 74%
12:00 +23°C° 0 mm 4 mps 748 mmHg 74%
13:00 +23°C° 0 mm 4 mps 749 mmHg 73%
14:00 +23°C° 0 mm 5 mps 749 mmHg 73%
15:00 +23°C° 0 mm 4 mps 749 mmHg 73%
16:00 +23°C° 0 mm 4 mps 749 mmHg 74%
17:00 +24°C° 0 mm 3 mps 749 mmHg 74%
18:00 +22°C° 0 mm 3 mps 749 mmHg 79%
19:00 +21°C° 0 mm 3 mps 749 mmHg 83%
20:00 +20°C° 0 mm 2 mps 749 mmHg 88%
21:00 +19°C° 0 mm 2 mps 749 mmHg 91%
22:00 +18°C° 0 mm 2 mps 749 mmHg 93%
23:00 +17°C° 0 mm 3 mps 749 mmHg 96%

27 June, Sunday

Time Temperature Precipitation Wind Pressure Humidity
00:00 +17°C° 0 mm 2 mps 749 mmHg 96%
01:00 +16°C° 0 mm 2 mps 749 mmHg 96%
02:00 +16°C° 0 mm 2 mps 750 mmHg 96%
03:00 +15°C° 0 mm 2 mps 750 mmHg 96%
04:00 +15°C° 0 mm 2 mps 750 mmHg 96%
05:00 +15°C° 0 mm 2 mps 750 mmHg 96%
06:00 +16°C° 0 mm 2 mps 750 mmHg 90%
07:00 +17°C° 0 mm 3 mps 750 mmHg 85%
08:00 +19°C° 0 mm 3 mps 750 mmHg 79%
09:00 +20°C° 0 mm 3 mps 750 mmHg 75%
10:00 +21°C° 0 mm 4 mps 750 mmHg 70%
11:00 +22°C° 0 mm 4 mps 751 mmHg 66%
12:00 +22°C° 0 mm 4 mps 751 mmHg 66%
13:00 +24°C° 0 mm 3 mps 751 mmHg 66%
14:00 +24°C° 0 mm 3 mps 750 mmHg 66%
15:00 +24°C° 0.1 mm 3 mps 750 mmHg 66%
16:00 +24°C° 0.1 mm 3 mps 750 mmHg 66%
17:00 +25°C° 0.1 mm 3 mps 750 mmHg 67%
18:00 +22°C° 0 mm 3 mps 750 mmHg 72%
19:00 +21°C° 0 mm 3 mps 750 mmHg 77%
20:00 +20°C° 0 mm 3 mps 750 mmHg 82%
21:00 +19°C° 0 mm 3 mps 750 mmHg 86%
22:00 +18°C° 0 mm 3 mps 751 mmHg 89%
23:00 +17°C° 0 mm 2 mps 751 mmHg 92%

28 June, Monday

Time Temperature Precipitation Wind Pressure Humidity
00:00 +16°C° 0 mm 2 mps 751 mmHg 93%
01:00 +16°C° 0 mm 2 mps 751 mmHg 93%
02:00 +15°C° 0 mm 2 mps 751 mmHg 93%
03:00 +15°C° 0 mm 2 mps 751 mmHg 93%
04:00 +15°C° 0 mm 2 mps 751 mmHg 93%
05:00 +15°C° 0 mm 2 mps 751 mmHg 92%
06:00 +17°C° 0 mm 2 mps 751 mmHg 86%
07:00 +18°C° 0 mm 2 mps 751 mmHg 81%
08:00 +20°C° 0 mm 2 mps 751 mmHg 75%
09:00 +21°C° 0 mm 2 mps 751 mmHg 71%
10:00 +22°C° 0 mm 3 mps 751 mmHg 67%
11:00 +25°C° 0 mm 3 mps 751 mmHg 62%
12:00 +25°C° 0.1 mm 3 mps 751 mmHg 60%
13:00 +26°C° 0.1 mm 3 mps 751 mmHg 58%
14:00 +26°C° 0.1 mm 3 mps 751 mmHg 56%
15:00 +26°C° 0 mm 3 mps 751 mmHg 59%
16:00 +26°C° 0 mm 3 mps 750 mmHg 62%
17:00 +25°C° 0 mm 2 mps 750 mmHg 64%
18:00 +24°C° 0.1 mm 2 mps 750 mmHg 69%
19:00 +23°C° 0.1 mm 2 mps 750 mmHg 74%
20:00 +20°C° 0.1 mm 2 mps 750 mmHg 79%
21:00 +19°C° 0 mm 2 mps 750 mmHg 83%
22:00 +18°C° 0 mm 2 mps 750 mmHg 86%
23:00 +17°C° 0 mm 2 mps 750 mmHg 89%
Show more